Regional Weather Roundup
Issued by NWS

Home | Current Version | Previous Version | Graphics & Text | Print | Product List | Glossary On
Versions: 1 2 3 4 5 6 7 8 9 10 11 12 13 14 15 16 17 18 19 20 21 22 23 24 25 26 27 28 29 30 31 32 33 34 35 36 37 38 39 40 41 42 43 44 45 46 47 48 49 50
000
ASUS43 KMPX 251501
RWRMN
WEATHER ROUNDUP FOR MINNESOTA
NATIONAL WEATHER SERVICE TWIN CITIES/CHANHASSEN MN
1000 AM CDT WED MAY 25 2016


NOTE: "FAIR" INDICATES FEW OR NO CLOUDS BELOW 12,000 FEET WITH NO
SIGNIFICANT WEATHER AND/OR OBSTRUCTIONS TO VISIBILITY. N/A MEANS
CURRENT SKY AND/OR WEATHER CONDITIONS ARE NOT AVAILABLE.

MNZ060>063-068>070-251600-
   Twin Cities Metro

CITY           SKY/WX    TMP DP  RH WIND       PRES   REMARKS
TWIN CITIES    CLOUDY    67  63  87 SE8       29.90S THUNDER
ST PAUL        TSTM      68  62  81 S13       29.91R
CRYSTAL        LGT RAIN  71  59  65 SE14G22   29.88R
BLAINE         CLOUDY    73  61  64 SE9       29.89F
EDEN PRAIRIE   TSTM      68  62  81 S14G21    29.90R
SOUTH ST PAUL  CLOUDY    66  63  89 S8        29.92R
LAKE ELMO      PTSUNNY   72  61  68 S10       29.92R
$$
MNZ001>005-007-008-013>017-022>024-027-028-251600-
   Northwest Minnesota

CITY           SKY/WX    TMP DP  RH WIND       PRES   REMARKS
BEMIDJI        CLOUDY    61  56  84 SE12      29.90F
HALLOCK        PTSUNNY   68  55  64 E12       29.83F
ROSEAU         PTSUNNY   70  57  64 E12       29.89F
WARROAD        CLOUDY    63  57  82 NE9       29.92F
THIEF RVR FALL CLOUDY    66  55  68 SE17      29.85F
CROOKSTON      CLOUDY    66  57  72 SE8       29.82F
FOSSTON        CLOUDY    63  55  77 E12G18    29.84F
DETROIT LAKES  CLOUDY    63  55  77 SE9       29.84F
MOORHEAD       CLOUDY    64  57  77 SE8       29.79F
PARK RAPIDS    CLOUDY    62  55  77 E10       29.88F
MAHNOMEN       FAIR      63  56  78 SE16G22   29.82F
$$
MNZ006-009>011-018-025>026-251600-
   North Central Minnesota

CITY           SKY/WX    TMP DP  RH WIND       PRES   REMARKS
BAUDETTE       PTSUNNY   59  53  80 E12       29.94F
FLAG ISLAND    CLOUDY    61  55  82 SE6       29.94R
WASKISH        CLOUDY    61  57  88 E8        29.92F
BIG FORK       CLOUDY    63  54  72 E8        29.96S
LONGVILLE      CLOUDY    59  55  88 E5        29.92F
CRANE LAKE     CLOUDY    59  54  82 CALM      30.02F
ORR            CLOUDY    61  50  67 CALM      29.97S
COOK           CLOUDY    61  52  72 E3        30.00S
WALKER         PTSUNNY   58  55  90 E7        29.91F
$$
MNZ012-019>021-037-251600-
   Northeast Minnesota

CITY           SKY/WX    TMP DP  RH WIND       PRES   REMARKS
ELY            CLOUDY    63  50  63 SE10      30.02S HAZE
HIBBING        CLOUDY    58  52  80 SE12      29.99S
EVELETH        CLOUDY    59  52  77 SE7       30.01S
DULUTH HARBOR  FOG       46  45  93 NE22      30.04F VSB 3/4
TWO HARBORS    CLOUDY    54  48  82 E13G18    30.02F HAZE
SILVER BAY     FOG       50  48  93 NE12      30.05R VSB 1/2
GRAND MARAIS     N/A     44  43  96 NE10      30.11R
G MARAIS ARPRT CLOUDY    52  48  87 SE5       30.10R
$$
MNZ029>031-032-039>041-046>048-054>057-064-251600-
   West Central Minnesota

CITY           SKY/WX    TMP DP  RH WIND       PRES   REMARKS
FERGUS FALLS   CLOUDY    64  55  72 SE14      29.78F
WHEATON        RAIN      64  61  88 E12       29.77F
MORRIS         CLOUDY    64  61  88 SE23G32   29.76S
ALEXANDRIA     TSTM      62  59  90 SE13      29.88R FOG
ELBOW LAKE     LGT RAIN  63  60  90 SE17G24   29.79F
WADENA         CLOUDY    61  57  88 E13G18    29.86F
GLENWOOD       CLOUDY    61  61 100 E16       29.84F
APPLETON       CLOUDY    66  59  77 SE14G22   29.75F
BENSON         CLOUDY    64  57  77 SE9G16    29.79F
ORTONVILLE     CLOUDY    64  61  88 SE12      29.75S
MADISON        CLOUDY    68  61  77 SE18      29.76S
WILLMAR        LGT RAIN  63  63 100 E14       29.83F
$$
MNZ033>034-036-042>043-049>051-058-059-251600-
   Central Minnesota

CITY           SKY/WX    TMP DP  RH WIND       PRES   REMARKS
ST CLOUD       CLOUDY    65  59  81 SE9       29.88S THUNDER
SAUK CENTRE    RAIN      61  59  94 S9        29.88F
PAYNESVILLE    RAIN      63  62  98 S5        29.90F
AITKIN         CLOUDY    59  52  77 E10       29.92F
PINE RIVER     CLOUDY    57  57 100 E9        29.95S
BRAINERD       CLOUDY    61  56  83 VRB5      29.91F
STAPLES        CLOUDY    63  55  77 E7        29.87F
LONG PRAIRIE   FAIR      61  55  82 SE8       29.89R
LITTLE FALLS   PTSUNNY   64  55  72 E9        29.88F
LITCHFIELD     RAIN      63  63 100 SE3       29.91S
BUFFALO        TSTM      64  60  87 S9G25     29.93R VSB 1/2
MAPLE LAKE     TSTM      66  61  85 S7        29.89R
HUTCHINSON     RAIN      64  63  97 CALM      29.90F
$$
MNZ037-044-045-052-053-251600-
   East Central Minnesota

CITY           SKY/WX    TMP DP  RH WIND       PRES   REMARKS
PRINCETON      CLOUDY    70  61  73 E8        29.88F
MORA           MOSUNNY   59  55  88 E7        29.93F
CAMBRIDGE      CLOUDY    72  59  64 E7        29.88F
RUSH CITY      PTSUNNY   66  60  81 NE6       29.92F
MOOSE LAKE     CLOUDY    52  48  87 NE7       29.96F
HINCKLEY       FAIR      63  55  77 NE8       29.94F
CLOQUET        FOG       50  48  93 E15G21    30.00F VSB 3/4
MCGREGOR       CLOUDY    54  52  94 E12       29.96F
$$
MNZ071>073-080-081-089-090-097-098-251600-
   Southwest Minnesota

CITY           SKY/WX    TMP DP  RH WIND       PRES   REMARKS
MONTEVIDEO     CLOUDY    66  63  88 S15       29.80F
GRANITE FALLS  CLOUDY    69  62  77 E10G18    29.81S
CANBY          CLOUDY    69  64  84 E15       29.78S
REDWOOD FALLS  CLOUDY    64  60  87 E10       29.81F
OLIVIA         LGT RAIN  61  57  88 E9        29.81F
PIPESTONE      CLOUDY    68  63  83 S16G22    29.79F
WINDOM         CLOUDY    68  61  77 SE9       29.83F
JACKSON        CLOUDY    68  59  73 SE7       29.84F
TRACY          CLOUDY    68  63  82 SE14      29.80F
SLAYTON        CLOUDY    66  63  88 S10       29.82S
$$
MNZ065>067-074>077-082>085-091>093-251600-
   South Central Minnesota

CITY           SKY/WX    TMP DP  RH WIND       PRES   REMARKS
MANKATO        CLOUDY    66  63  88 NE6       29.87F
NEW ULM        LGT RAIN  64  63  94 E6        29.85F
ST JAMES       LGT RAIN  63  61  94 E9        29.84F
FAIRMONT       CLOUDY    66  59  77 SE5       29.84F
GLENCOE        CLOUDY    63  63 100 SW6       29.89F
FARIBAULT      CLOUDY    66  63  88 SE5       29.90F
OWATONNA       RAIN      66  63  88 E5        29.89F
WASECA         PTSUNNY   64  63  94 E6        29.89F
ALBERT LEA     CLOUDY    66  64  94 E10       29.86F FOG
$$
MNZ078>079-086>088-094>096-251600-
   Southeast Minnesota

CITY           SKY/WX    TMP DP  RH WIND       PRES   REMARKS
ROCHESTER      PTSUNNY   68  66  93 E7        29.91F
RED WING       CLOUDY    70  61  73 SE5       29.91  THUNDER
STANTON        TSTM      66  60  82 SE3       29.90S
DODGE CENTER   PTSUNNY   66  64  94 E7        29.91F FOG
WINONA         CLOUDY    70  59  68 SE5       29.94S
AUSTIN         CLOUDY    66  63  88 CALM      29.88F
PRESTON        CLOUDY    66  63  89 E7        29.92F
$$
ABBREVIATIONS USED IN REMARKS
   TC - TEMPERATURES IN CELSIUS
  WCI - WIND CHILL INDEX
   HX - HEAT INDEX
  VSB - VISIBILITY
$$




USA.gov is the U.S. government's official web portal to all federal, state and local government web resources and services.